Time,TemperatureF,DewpointF,PressureIn,WindDirection,WindDirectionDegrees,WindSpeedMPH,WindSpeedGustMPH,Humidity,HourlyPrecipIn,Conditions,Clouds,dailyrainin,SolarRadiationWatts/m^2,SoftwareType,DateUTC
2013-02-12 00:00:00,39.2,35.7,30.23,ENE,67,0.0,0.0,87,0.00,,,0.00,0.0,WeatherDisplay:10.37,2013-02-12 08:00:00,
2013-02-12 00:05:00,39.1,35.6,30.23,ENE,67,0.0,0.0,87,0.00,,,0.00,0.0,WeatherDisplay:10.37,2013-02-12 08:05:00,
2013-02-12 00:10:00,39.2,35.7,30.24,ENE,67,0.0,0.0,87,0.00,,,0.00,0.0,WeatherDisplay:10.37,2013-02-12 08:10:00,
2013-02-12 00:15:00,39.2,35.7,30.24,ENE,67,0.0,0.0,87,0.00,,,0.00,0.0,WeatherDisplay:10.37,2013-02-12 08:15:00,
2013-02-12 00:20:00,39.1,35.6,30.24,ENE,67,0.0,0.0,87,0.00,,,0.00,0.0,WeatherDisplay:10.37,2013-02-12 08:20:00,
2013-02-12 00:25:00,39.0,35.5,30.24,ENE,67,0.0,0.0,87,0.00,,,0.00,0.0,WeatherDisplay:10.37,2013-02-12 08:25:00,
2013-02-12 00:30:00,38.9,35.4,30.24,ENE,67,0.0,0.0,87,0.00,,,0.00,0.0,WeatherDisplay:10.37,2013-02-12 08:30:00,
2013-02-12 00:35:00,38.8,35.3,30.24,ENE,67,0.0,0.0,87,0.00,,,0.00,0.0,WeatherDisplay:10.37,2013-02-12 08:35:00,
2013-02-12 00:40:00,38.6,35.1,30.24,ENE,67,0.0,0.0,87,0.00,,,0.00,0.0,WeatherDisplay:10.37,2013-02-12 08:40:00,
2013-02-12 00:45:00,38.5,35.0,30.24,ENE,67,0.0,0.0,87,0.00,,,0.00,0.0,WeatherDisplay:10.37,2013-02-12 08:45:00,
2013-02-12 00:50:00,38.4,35.2,30.24,ENE,67,0.0,0.0,88,0.00,,,0.00,0.0,WeatherDisplay:10.37,2013-02-12 08:50:00,
2013-02-12 00:55:00,38.4,34.9,30.24,ENE,67,0.0,0.0,87,0.00,,,0.00,0.0,WeatherDisplay:10.37,2013-02-12 08:55:00,
2013-02-12 01:00:00,38.2,34.7,30.24,ENE,67,0.0,0.0,87,0.00,,,0.00,0.0,WeatherDisplay:10.37,2013-02-12 09:00:00,
2013-02-12 01:05:00,38.1,34.9,30.24,ENE,67,0.0,0.0,88,0.00,,,0.00,0.0,WeatherDisplay:10.37,2013-02-12 09:05:00,
2013-02-12 01:10:00,38.0,34.8,30.24,ENE,67,0.0,0.0,88,0.00,,,0.00,0.0,WeatherDisplay:10.37,2013-02-12 09:10:00,
2013-02-12 01:15:00,37.9,34.7,30.24,ENE,67,0.0,0.0,88,0.00,,,0.00,0.0,WeatherDisplay:10.37,2013-02-12 09:15:00,
2013-02-12 01:20:00,37.7,34.5,30.24,ENE,67,0.0,0.0,88,0.00,,,0.00,0.0,WeatherDisplay:10.37,2013-02-12 09:20:00,
2013-02-12 01:25:00,37.6,34.4,30.24,ENE,67,0.0,0.0,88,0.00,,,0.00,0.0,WeatherDisplay:10.37,2013-02-12 09:25:00,
2013-02-12 01:30:00,37.5,34.3,30.24,ENE,67,0.0,0.0,88,0.00,CLR,,0.00,0.0,WeatherDisplay:10.37,2013-02-12 09:30:00,
2013-02-12 01:35:00,37.4,34.2,30.24,ENE,67,0.0,0.0,88,0.00,,,0.00,0.0,WeatherDisplay:10.37,2013-02-12 09:35:00,
2013-02-12 01:40:00,37.3,34.1,30.24,ENE,67,0.0,0.0,88,0.00,,,0.00,0.0,WeatherDisplay:10.37,2013-02-12 09:40:00,
2013-02-12 01:45:00,37.2,34.0,30.24,ENE,67,0.0,0.0,88,0.00,,,0.00,0.0,WeatherDisplay:10.37,2013-02-12 09:45:00,
2013-02-12 01:50:00,37.2,34.0,30.24,ENE,67,0.0,0.0,88,0.00,,,0.00,0.0,WeatherDisplay:10.37,2013-02-12 09:50:00,
2013-02-12 01:55:00,37.2,34.0,30.24,ENE,67,0.0,0.0,88,0.00,,,0.00,0.0,WeatherDisplay:10.37,2013-02-12 09:55:00,
2013-02-12 02:00:00,37.1,33.9,30.25,ENE,67,0.0,0.0,88,0.00,,,0.00,0.0,WeatherDisplay:10.37,2013-02-12 10:00:00,
2013-02-12 02:05:00,37.1,33.9,30.25,ENE,67,0.0,0.0,88,0.00,,,0.00,0.0,WeatherDisplay:10.37,2013-02-12 10:05:00,
2013-02-12 02:10:00,37.0,33.8,30.25,ENE,67,0.0,0.0,88,0.00,,,0.00,0.0,WeatherDisplay:10.37,2013-02-12 10:10:00,
2013-02-12 02:15:00,36.9,33.7,30.25,ENE,67,0.0,0.0,88,0.00,,,0.00,0.0,WeatherDisplay:10.37,2013-02-12 10:15:00,
2013-02-12 02:20:00,37.0,33.8,30.25,ENE,67,0.0,0.0,88,0.00,,,0.00,0.0,WeatherDisplay:10.37,2013-02-12 10:20:00,
2013-02-12 02:25:00,36.9,33.7,30.25,ENE,67,0.0,0.0,88,0.00,,,0.00,0.0,WeatherDisplay:10.37,2013-02-12 10:25:00,
2013-02-12 02:30:00,36.8,33.6,30.25,ENE,67,0.0,0.0,88,0.00,,,0.00,0.0,WeatherDisplay:10.37,2013-02-12 10:30:00,
2013-02-12 02:35:00,36.7,33.5,30.25,ENE,67,0.0,0.0,88,0.00,,,0.00,0.0,WeatherDisplay:10.37,2013-02-12 10:35:00,
2013-02-12 02:40:00,36.5,33.3,30.25,ENE,67,0.0,0.0,88,0.00,,,0.00,0.0,WeatherDisplay:10.37,2013-02-12 10:40:00,
2013-02-12 02:45:00,36.4,33.2,30.25,ENE,67,0.0,0.0,88,0.00,,,0.00,0.0,WeatherDisplay:10.37,2013-02-12 10:45:00,
2013-02-12 02:50:00,36.2,33.0,30.25,ENE,67,0.0,0.0,88,0.00,,,0.00,0.0,WeatherDisplay:10.37,2013-02-12 10:50:00,
2013-02-12 02:55:00,36.1,32.9,30.26,ENE,67,0.0,0.0,88,0.00,,,0.00,0.0,WeatherDisplay:10.37,2013-02-12 10:55:00,
2013-02-12 03:00:00,35.9,32.7,30.26,ENE,67,0.0,0.0,88,0.00,,,0.00,0.0,WeatherDisplay:10.37,2013-02-12 11:00:00,
2013-02-12 03:05:00,35.6,32.4,30.26,ENE,67,0.0,0.0,88,0.00,,,0.00,0.0,WeatherDisplay:10.37,2013-02-12 11:05:00,
2013-02-12 03:10:00,35.4,32.2,30.26,ENE,67,0.0,0.0,88,0.00,,,0.00,0.0,WeatherDisplay:10.37,2013-02-12 11:10:00,
2013-02-12 03:15:00,35.2,32.0,30.26,ENE,67,0.0,0.0,88,0.00,,,0.00,0.0,WeatherDisplay:10.37,2013-02-12 11:15:00,
2013-02-12 03:20:00,35.2,32.0,30.25,ENE,67,0.0,0.0,88,0.00,,,0.00,0.0,WeatherDisplay:10.37,2013-02-12 11:20:00,
2013-02-12 03:25:00,35.2,32.3,30.26,ENE,67,0.0,0.0,89,0.00,,,0.00,0.0,WeatherDisplay:10.37,2013-02-12 11:25:00,
2013-02-12 03:30:00,35.1,32.2,30.25,ENE,67,0.0,0.0,89,0.00,,,0.00,0.0,WeatherDisplay:10.37,2013-02-12 11:30:00,
2013-02-12 03:35:00,35.1,31.9,30.25,ENE,67,0.0,0.0,88,0.00,,,0.00,0.0,WeatherDisplay:10.37,2013-02-12 11:35:00,
2013-02-12 03:40:00,35.0,31.8,30.26,ENE,67,0.0,0.0,88,0.00,,,0.00,0.0,WeatherDisplay:10.37,2013-02-12 11:40:00,
2013-02-12 03:45:00,34.8,31.6,30.26,ENE,67,0.0,0.0,88,0.00,,,0.00,0.0,WeatherDisplay:10.37,2013-02-12 11:45:00,
2013-02-12 03:50:00,34.7,31.5,30.26,ENE,67,0.0,0.0,88,0.00,,,0.00,0.0,WeatherDisplay:10.37,2013-02-12 11:50:00,
2013-02-12 03:55:00,34.6,31.7,30.26,ENE,67,0.0,0.0,89,0.00,,,0.00,0.0,WeatherDisplay:10.37,2013-02-12 11:55:00,
2013-02-12 04:00:00,34.6,31.7,30.26,ENE,67,0.0,0.0,89,0.00,,,0.00,0.0,WeatherDisplay:10.37,2013-02-12 12:00:00,
2013-02-12 04:05:00,34.6,31.7,30.26,ENE,67,0.0,0.0,89,0.00,,,0.00,0.0,WeatherDisplay:10.37,2013-02-12 12:05:00,
2013-02-12 04:10:00,34.5,31.6,30.26,ENE,67,0.0,0.0,89,0.00,CLR,,0.00,0.0,WeatherDisplay:10.37,2013-02-12 12:10:00,
2013-02-12 04:15:00,34.4,31.5,30.26,ENE,67,0.0,0.0,89,0.00,,,0.00,0.0,WeatherDisplay:10.37,2013-02-12 12:15:00,
2013-02-12 04:20:00,34.4,31.5,30.26,ENE,67,0.0,0.0,89,0.00,,,0.00,0.0,WeatherDisplay:10.37,2013-02-12 12:20:00,
2013-02-12 04:25:00,34.4,31.5,30.26,ENE,67,0.0,0.0,89,0.00,,,0.00,0.0,WeatherDisplay:10.37,2013-02-12 12:25:00,
2013-02-12 04:30:00,34.4,31.5,30.26,ENE,67,0.0,0.0,89,0.00,,,0.00,0.0,WeatherDisplay:10.37,2013-02-12 12:30:00,
2013-02-12 04:35:00,34.3,31.4,30.26,ENE,67,0.0,0.0,89,0.00,CLR,,0.00,0.0,WeatherDisplay:10.37,2013-02-12 12:35:00,
2013-02-12 04:40:00,34.1,31.2,30.26,ENE,67,0.0,0.0,89,0.00,CLR,,0.00,0.0,WeatherDisplay:10.37,2013-02-12 12:40:00,
2013-02-12 04:45:00,34.1,31.2,30.27,ENE,67,0.0,0.0,89,0.00,CLR,,0.00,0.0,WeatherDisplay:10.37,2013-02-12 12:45:00,
2013-02-12 04:50:00,34.0,31.1,30.27,ENE,67,0.0,0.0,89,0.00,,,0.00,0.0,WeatherDisplay:10.37,2013-02-12 12:50:00,
2013-02-12 04:55:00,34.0,31.1,30.27,ENE,67,0.0,0.0,89,0.00,,,0.00,0.0,WeatherDisplay:10.37,2013-02-12 12:55:00,
2013-02-12 05:00:00,33.9,31.0,30.27,ENE,67,0.0,0.0,89,0.00,,,0.00,0.0,WeatherDisplay:10.37,2013-02-12 13:00:00,
2013-02-12 05:05:00,33.8,30.9,30.27,ENE,67,0.0,0.0,89,0.00,,,0.00,0.0,WeatherDisplay:10.37,2013-02-12 13:05:00,
2013-02-12 05:10:00,33.8,30.9,30.27,ENE,67,0.0,0.0,89,0.00,,,0.00,0.0,WeatherDisplay:10.37,2013-02-12 13:10:00,
2013-02-12 05:15:00,33.8,30.9,30.27,ENE,67,0.0,0.0,89,0.00,,,0.00,0.0,WeatherDisplay:10.37,2013-02-12 13:15:00,
2013-02-12 05:20:00,33.7,30.8,30.27,ENE,67,0.0,0.0,89,0.00,,,0.00,0.0,WeatherDisplay:10.37,2013-02-12 13:20:00,
2013-02-12 05:25:00,33.6,30.7,30.27,ENE,67,0.0,0.0,89,0.00,,,0.00,0.0,WeatherDisplay:10.37,2013-02-12 13:25:00,
2013-02-12 05:30:00,33.4,30.5,30.27,ENE,67,0.0,0.0,89,0.00,,,0.00,0.0,WeatherDisplay:10.37,2013-02-12 13:30:00,
2013-02-12 05:35:00,33.2,30.3,30.27,ENE,67,0.0,0.0,89,0.00,,,0.00,0.0,WeatherDisplay:10.37,2013-02-12 13:35:00,
2013-02-12 05:40:00,33.2,30.3,30.27,ENE,67,0.0,0.0,89,0.00,CLR,,0.00,0.0,WeatherDisplay:10.37,2013-02-12 13:40:00,
2013-02-12 05:45:00,33.3,30.4,30.27,ENE,67,0.0,0.0,89,0.00,CLR,,0.00,0.0,WeatherDisplay:10.37,2013-02-12 13:45:00,
2013-02-12 05:50:00,33.3,30.7,30.27,ENE,67,0.0,0.0,90,0.00,CLR,,0.00,0.0,WeatherDisplay:10.37,2013-02-12 13:50:00,
2013-02-12 05:55:00,33.4,30.8,30.27,ENE,67,0.0,0.0,90,0.00,,,0.00,0.0,WeatherDisplay:10.37,2013-02-12 13:55:00,
2013-02-12 06:00:00,33.3,30.7,30.27,ENE,67,0.0,0.0,90,0.00,,,0.00,0.0,WeatherDisplay:10.37,2013-02-12 14:00:00,
2013-02-12 06:05:00,33.3,30.7,30.27,ENE,67,0.0,0.0,90,0.00,,,0.00,0.0,WeatherDisplay:10.37,2013-02-12 14:05:00,
2013-02-12 06:10:00,33.4,30.8,30.27,ENE,67,0.0,0.0,90,0.00,,,0.00,0.0,WeatherDisplay:10.37,2013-02-12 14:10:00,
2013-02-12 06:15:00,33.5,30.9,30.27,ENE,67,0.0,0.0,90,0.00,CLR,,0.00,0.0,WeatherDisplay:10.37,2013-02-12 14:15:00,
2013-02-12 06:20:00,33.6,31.0,30.28,ENE,67,0.0,0.0,90,0.00,,,0.00,0.0,WeatherDisplay:10.37,2013-02-12 14:20:00,
2013-02-12 06:25:00,33.6,31.0,30.28,ENE,67,0.0,0.0,90,0.00,,,0.00,0.0,WeatherDisplay:10.37,2013-02-12 14:25:00,
2013-02-12 06:30:00,33.6,31.0,30.28,ENE,67,0.0,0.0,90,0.00,,,0.00,0.0,WeatherDisplay:10.37,2013-02-12 14:30:00,
2013-02-12 06:35:00,33.6,31.0,30.29,ENE,67,0.0,0.0,90,0.00,,,0.00,0.0,WeatherDisplay:10.37,2013-02-12 14:35:00,
2013-02-12 06:40:00,33.4,30.8,30.29,ENE,67,0.0,0.0,90,0.00,,,0.00,0.0,WeatherDisplay:10.37,2013-02-12 14:40:00,
2013-02-12 06:45:00,33.3,30.7,30.29,ENE,67,0.0,0.0,90,0.00,,,0.00,0.0,WeatherDisplay:10.37,2013-02-12 14:45:00,
2013-02-12 06:50:00,33.3,30.7,30.30,ENE,67,0.0,0.0,90,0.00,,,0.00,0.0,WeatherDisplay:10.37,2013-02-12 14:50:00,
2013-02-12 06:55:00,33.2,30.6,30.30,ENE,67,0.0,0.0,90,0.00,,,0.00,0.0,WeatherDisplay:10.37,2013-02-12 14:55:00,
2013-02-12 07:00:00,33.2,30.6,30.30,ENE,67,0.0,0.0,90,0.00,OVC,,0.00,0.0,WeatherDisplay:10.37,2013-02-12 15:00:00,
2013-02-12 07:05:00,33.2,30.6,30.30,ENE,67,0.0,0.0,90,0.00,CLR,,0.00,5.0,WeatherDisplay:10.37,2013-02-12 15:05:00,
2013-02-12 07:10:00,33.2,30.6,30.31,ENE,67,0.0,0.0,90,0.00,SCT,,0.00,9.0,WeatherDisplay:10.37,2013-02-12 15:10:00,
2013-02-12 07:15:00,33.2,30.6,30.31,ENE,67,0.0,0.0,90,0.00,SCT,,0.00,12.0,WeatherDisplay:10.37,2013-02-12 15:15:00,
2013-02-12 07:20:00,33.3,30.7,30.31,ENE,67,0.0,0.0,90,0.00,SCT,,0.00,16.0,WeatherDisplay:10.37,2013-02-12 15:20:00,
2013-02-12 07:25:00,33.4,30.8,30.32,ENE,67,0.0,0.0,90,0.00,BKN,,0.00,19.0,WeatherDisplay:10.37,2013-02-12 15:25:00,
2013-02-12 07:30:00,33.7,31.1,30.32,ENE,67,0.0,0.0,90,0.00,BKN,,0.00,19.0,WeatherDisplay:10.37,2013-02-12 15:30:00,
2013-02-12 07:35:00,33.9,31.3,30.32,ENE,67,0.0,0.0,90,0.00,BKN,,0.00,25.0,WeatherDisplay:10.37,2013-02-12 15:35:00,
2013-02-12 07:40:00,34.1,31.5,30.32,ENE,67,0.0,0.0,90,0.00,BKN,,0.00,28.0,WeatherDisplay:10.37,2013-02-12 15:40:00,
2013-02-12 07:45:00,34.4,32.0,30.32,ENE,67,0.0,0.0,91,0.00,BKN,,0.00,40.0,WeatherDisplay:10.37,2013-02-12 15:45:00,
2013-02-12 07:50:00,34.5,32.1,30.33,ENE,67,0.0,0.0,91,0.00,BKN,,0.00,33.0,WeatherDisplay:10.37,2013-02-12 15:50:00,
2013-02-12 07:55:00,34.7,32.3,30.32,ENE,67,0.0,0.0,91,0.00,SCT,,0.00,72.0,WeatherDisplay:10.37,2013-02-12 15:55:00,
2013-02-12 08:00:00,36.4,34.0,30.33,ENE,67,0.0,0.0,91,0.00,CLR,,0.00,113.0,WeatherDisplay:10.37,2013-02-12 16:00:00,
2013-02-12 08:05:00,38.5,36.4,30.33,ENE,67,0.0,0.0,92,0.00,CLR,,0.00,130.0,WeatherDisplay:10.37,2013-02-12 16:05:00,
2013-02-12 08:10:00,39.4,37.3,30.33,ENE,67,0.0,0.0,92,0.00,CLR,,0.00,142.0,WeatherDisplay:10.37,2013-02-12 16:10:00,
2013-02-12 08:15:00,40.0,37.9,30.33,ENE,67,0.0,0.0,92,0.00,CLR,,0.00,162.0,WeatherDisplay:10.37,2013-02-12 16:15:00,
2013-02-12 08:20:00,40.9,38.8,30.33,ENE,67,0.0,0.0,92,0.00,CLR,,0.00,172.0,WeatherDisplay:10.37,2013-02-12 16:20:00,
2013-02-12 08:25:00,41.7,39.3,30.33,ENE,67,0.0,0.0,91,0.00,CLR,,0.00,190.0,WeatherDisplay:10.37,2013-02-12 16:25:00,
2013-02-12 08:30:00,42.4,39.7,30.34,ENE,67,1.2,1.2,90,0.00,CLR,,0.00,202.0,WeatherDisplay:10.37,2013-02-12 16:30:00,
2013-02-12 08:35:00,43.2,40.2,30.34,ENE,67,1.2,1.2,89,0.00,CLR,,0.00,218.0,WeatherDisplay:10.37,2013-02-12 16:35:00,
2013-02-12 08:40:00,43.9,40.3,30.34,ENE,67,2.3,2.3,87,0.00,CLR,,0.00,239.0,WeatherDisplay:10.37,2013-02-12 16:40:00,
2013-02-12 08:45:00,44.5,40.3,30.34,ENE,67,2.3,2.3,85,0.00,CLR,,0.00,253.0,WeatherDisplay:10.37,2013-02-12 16:45:00,
2013-02-12 08:50:00,45.2,41.0,30.34,NW,305,0.0,0.0,85,0.00,CLR,,0.00,265.0,WeatherDisplay:10.37,2013-02-12 16:50:00,
2013-02-12 08:55:00,46.1,41.5,30.34,NW,305,0.0,0.0,84,0.00,CLR,,0.00,283.0,WeatherDisplay:10.37,2013-02-12 16:55:00,
2013-02-12 09:00:00,46.4,41.2,30.34,WNW,303,3.5,3.5,82,0.00,CLR,,0.00,294.0,WeatherDisplay:10.37,2013-02-12 17:00:00,
2013-02-12 09:05:00,46.8,41.6,30.35,WNW,298,2.3,2.3,82,0.00,CLR,,0.00,327.0,WeatherDisplay:10.37,2013-02-12 17:05:00,
2013-02-12 09:10:00,47.9,42.3,30.34,WNW,298,0.0,0.0,81,0.00,CLR,,0.00,345.0,WeatherDisplay:10.37,2013-02-12 17:10:00,
2013-02-12 09:15:00,48.3,42.1,30.35,WNW,286,2.3,2.3,79,0.00,CLR,,0.00,360.0,WeatherDisplay:10.37,2013-02-12 17:15:00,
2013-02-12 09:20:00,48.4,42.2,30.35,WNW,286,1.2,1.2,79,0.00,CLR,,0.00,367.0,WeatherDisplay:10.37,2013-02-12 17:20:00,
2013-02-12 09:25:00,49.1,42.5,30.35,WNW,287,2.3,2.3,78,0.00,CLR,,0.00,376.0,WeatherDisplay:10.37,2013-02-12 17:25:00,
2013-02-12 09:30:00,49.9,43.0,30.35,WNW,287,2.3,2.3,77,0.00,CLR,,0.00,401.0,WeatherDisplay:10.37,2013-02-12 17:30:00,
2013-02-12 09:35:00,50.0,42.7,30.35,WNW,287,2.3,2.3,76,0.00,CLR,,0.00,417.0,WeatherDisplay:10.37,2013-02-12 17:35:00,
2013-02-12 09:40:00,49.9,42.3,30.35,WNW,290,2.3,2.3,75,0.00,CLR,,0.00,411.0,WeatherDisplay:10.37,2013-02-12 17:40:00,
2013-02-12 09:45:00,50.2,42.6,30.35,West,265,2.3,2.3,75,0.00,CLR,,0.00,413.0,WeatherDisplay:10.37,2013-02-12 17:45:00,
2013-02-12 09:50:00,50.5,42.9,30.35,West,273,1.2,1.2,75,0.00,CLR,,0.00,429.0,WeatherDisplay:10.37,2013-02-12 17:50:00,
2013-02-12 09:55:00,50.5,42.5,30.35,West,270,2.3,2.3,74,0.00,CLR,,0.00,441.0,WeatherDisplay:10.37,2013-02-12 17:55:00,
2013-02-12 10:00:00,51.3,43.3,30.35,SW,234,2.3,2.3,74,0.00,CLR,,0.00,452.0,WeatherDisplay:10.37,2013-02-12 18:00:00,
2013-02-12 10:05:00,51.8,43.4,30.35,NW,326,1.2,0.0,73,0.00,CLR,,0.00,471.0,WeatherDisplay:10.37,2013-02-12 18:05:00,
2013-02-12 10:10:00,52.6,43.8,30.35,NNW,327,1.2,1.2,72,0.00,CLR,,0.00,482.0,WeatherDisplay:10.37,2013-02-12 18:10:00,
2013-02-12 10:15:00,51.9,42.8,30.35,WNW,286,2.3,2.3,71,0.00,CLR,,0.00,499.0,WeatherDisplay:10.37,2013-02-12 18:15:00,
2013-02-12 10:20:00,52.0,43.3,30.35,WNW,286,1.2,0.0,72,0.00,CLR,,0.00,512.0,WeatherDisplay:10.37,2013-02-12 18:20:00,
2013-02-12 10:25:00,52.9,43.7,30.35,WNW,285,1.2,1.2,71,0.00,CLR,,0.00,515.0,WeatherDisplay:10.37,2013-02-12 18:25:00,
2013-02-12 10:30:00,53.7,43.8,30.35,WNW,285,1.2,1.2,69,0.00,CLR,,0.00,540.0,WeatherDisplay:10.37,2013-02-12 18:30:00,
2013-02-12 10:35:00,54.2,43.1,30.35,WNW,294,2.3,2.3,66,0.00,CLR,,0.00,534.0,WeatherDisplay:10.37,2013-02-12 18:35:00,
2013-02-12 10:40:00,53.1,42.8,30.35,WNW,301,1.2,1.2,68,0.00,CLR,,0.00,550.0,WeatherDisplay:10.37,2013-02-12 18:40:00,
2013-02-12 10:45:00,53.9,43.6,30.35,NNE,17,2.3,2.3,68,0.00,CLR,,0.00,554.0,WeatherDisplay:10.37,2013-02-12 18:45:00,
2013-02-12 10:50:00,54.3,43.6,30.35,ENE,69,1.2,1.2,67,0.00,CLR,,0.00,566.0,WeatherDisplay:10.37,2013-02-12 18:50:00,
2013-02-12 10:55:00,54.5,44.2,30.35,East,84,1.2,1.2,68,0.00,CLR,,0.00,577.0,WeatherDisplay:10.37,2013-02-12 18:55:00,
2013-02-12 11:00:00,54.7,43.6,30.35,East,90,2.3,2.3,66,0.00,CLR,,0.00,587.0,WeatherDisplay:10.37,2013-02-12 19:00:00,
2013-02-12 11:05:00,54.2,43.1,30.35,WNW,286,6.0,6.0,66,0.00,CLR,,0.00,594.0,WeatherDisplay:10.37,2013-02-12 19:05:00,
2013-02-12 11:10:00,54.1,43.0,30.35,WNW,298,2.3,2.3,66,0.00,CLR,,0.00,599.0,WeatherDisplay:10.37,2013-02-12 19:10:00,
2013-02-12 11:15:00,54.6,43.5,30.35,NW,313,2.3,2.3,66,0.00,CLR,,0.00,601.0,WeatherDisplay:10.37,2013-02-12 19:15:00,
2013-02-12 11:20:00,55.0,43.0,30.35,NW,326,4.6,4.6,64,0.00,CLR,,0.00,610.0,WeatherDisplay:10.37,2013-02-12 19:20:00,
2013-02-12 11:25:00,56.1,43.7,30.35,WNW,285,3.5,3.5,63,0.00,CLR,,0.00,615.0,WeatherDisplay:10.37,2013-02-12 19:25:00,
2013-02-12 11:30:00,55.5,43.1,30.35,NNE,14,1.2,1.2,63,0.00,CLR,,0.00,617.0,WeatherDisplay:10.37,2013-02-12 19:30:00,
2013-02-12 11:35:00,55.8,43.0,30.35,WNW,298,4.0,4.0,62,0.00,CLR,,0.00,624.0,WeatherDisplay:10.37,2013-02-12 19:35:00,
2013-02-12 11:40:00,56.2,43.3,30.35,West,279,1.2,1.2,62,0.00,CLR,,0.00,626.0,WeatherDisplay:10.37,2013-02-12 19:40:00,
2013-02-12 11:45:00,55.9,42.2,30.35,WNW,293,4.6,4.6,60,0.00,CLR,,0.00,631.0,WeatherDisplay:10.37,2013-02-12 19:45:00,
2013-02-12 11:50:00,56.6,42.9,30.35,North,355,2.3,2.3,60,0.00,CLR,,0.00,635.0,WeatherDisplay:10.37,2013-02-12 19:50:00,
2013-02-12 11:55:00,58.0,43.3,30.35,ENE,68,1.2,1.2,58,0.00,CLR,,0.00,636.0,WeatherDisplay:10.37,2013-02-12 19:55:00,
2013-02-12 12:00:00,57.1,42.5,30.34,NNW,329,3.5,3.5,58,0.00,CLR,,0.00,640.0,WeatherDisplay:10.37,2013-02-12 20:00:00,
2013-02-12 12:05:00,56.5,42.8,30.34,WNW,292,1.2,1.2,60,0.00,CLR,,0.00,640.0,WeatherDisplay:10.37,2013-02-12 20:05:00,
2013-02-12 12:10:00,57.5,43.3,30.34,NNE,32,2.3,2.3,59,0.00,CLR,,0.00,640.0,WeatherDisplay:10.37,2013-02-12 20:10:00,
2013-02-12 12:15:00,56.6,42.0,30.34,West,269,4.6,4.6,58,0.00,CLR,,0.00,642.0,WeatherDisplay:10.37,2013-02-12 20:15:00,
2013-02-12 12:20:00,56.5,42.3,30.34,NW,311,4.6,4.6,59,0.00,CLR,,0.00,640.0,WeatherDisplay:10.37,2013-02-12 20:20:00,
2013-02-12 12:25:00,57.2,42.5,30.34,South,190,2.3,2.3,58,0.00,CLR,,0.00,640.0,WeatherDisplay:10.37,2013-02-12 20:25:00,
2013-02-12 12:30:00,58.2,43.0,30.33,WNW,296,4.0,4.0,57,0.00,CLR,,0.00,643.0,WeatherDisplay:10.37,2013-02-12 20:30:00,
2013-02-12 12:35:00,58.0,42.8,30.33,WNW,298,5.0,5.0,57,0.00,CLR,,0.00,642.0,WeatherDisplay:10.37,2013-02-12 20:35:00,
2013-02-12 12:40:00,58.0,42.8,30.33,West,281,5.0,5.0,57,0.00,CLR,,0.00,638.0,WeatherDisplay:10.37,2013-02-12 20:40:00,
2013-02-12 12:45:00,57.6,42.5,30.33,NNW,336,2.3,2.3,57,0.00,CLR,,0.00,635.0,WeatherDisplay:10.37,2013-02-12 20:45:00,
2013-02-12 12:50:00,57.5,42.4,30.33,NNW,341,2.3,2.3,57,0.00,CLR,,0.00,638.0,WeatherDisplay:10.37,2013-02-12 20:50:00,
2013-02-12 12:55:00,58.7,43.0,30.32,WNW,286,5.0,5.0,56,0.00,CLR,,0.00,631.0,WeatherDisplay:10.37,2013-02-12 20:55:00,
2013-02-12 13:00:00,58.3,42.2,30.32,WNW,289,4.6,4.6,55,0.00,CLR,,0.00,626.0,WeatherDisplay:10.37,2013-02-12 21:00:00,
2013-02-12 13:05:00,57.5,41.9,30.32,NW,305,3.5,3.5,56,0.00,CLR,,0.00,628.0,WeatherDisplay:10.37,2013-02-12 21:05:00,
2013-02-12 13:10:00,59.0,43.3,30.32,WSW,238,3.5,3.5,56,0.00,CLR,,0.00,631.0,WeatherDisplay:10.37,2013-02-12 21:10:00,
2013-02-12 13:15:00,59.9,42.7,30.31,WSW,241,1.2,1.2,53,0.00,CLR,,0.00,633.0,WeatherDisplay:10.37,2013-02-12 21:15:00,
2013-02-12 13:20:00,59.5,40.8,30.31,WNW,290,2.3,2.3,50,0.00,CLR,,0.00,626.0,WeatherDisplay:10.37,2013-02-12 21:20:00,
2013-02-12 13:25:00,59.3,40.7,30.31,WNW,298,4.6,4.6,50,0.00,CLR,,0.00,621.0,WeatherDisplay:10.37,2013-02-12 21:25:00,
2013-02-12 13:30:00,60.2,41.5,30.31,NNW,345,2.3,2.3,50,0.00,CLR,,0.00,606.0,WeatherDisplay:10.37,2013-02-12 21:30:00,
2013-02-12 13:35:00,60.5,40.7,30.31,North,355,3.5,3.5,48,0.00,CLR,,0.00,610.0,WeatherDisplay:10.37,2013-02-12 21:35:00,
2013-02-12 13:40:00,60.9,41.1,30.30,North,355,2.3,2.3,48,0.00,CLR,,0.00,594.0,WeatherDisplay:10.37,2013-02-12 21:40:00,
2013-02-12 13:45:00,60.9,41.1,30.31,NW,325,3.5,3.5,48,0.00,CLR,,0.00,538.0,WeatherDisplay:10.37,2013-02-12 21:45:00,
2013-02-12 13:50:00,60.8,40.4,30.31,NE,42,2.3,2.3,47,0.00,CLR,,0.00,506.0,WeatherDisplay:10.37,2013-02-12 21:50:00,
2013-02-12 13:55:00,60.2,40.4,30.31,NE,37,3.5,3.5,48,0.00,CLR,,0.00,485.0,WeatherDisplay:10.37,2013-02-12 21:55:00,
2013-02-12 14:00:00,60.4,40.6,30.30,NE,41,2.3,2.3,48,0.00,CLR,,0.00,575.0,WeatherDisplay:10.37,2013-02-12 22:00:00,
2013-02-12 14:05:00,60.3,40.0,30.30,NE,51,3.5,3.5,47,0.00,CLR,,0.00,564.0,WeatherDisplay:10.37,2013-02-12 22:05:00,
2013-02-12 14:10:00,60.3,40.0,30.30,WNW,302,3.5,3.5,47,0.00,CLR,,0.00,555.0,WeatherDisplay:10.37,2013-02-12 22:10:00,
2013-02-12 14:15:00,59.9,39.6,30.30,North,5,3.5,3.5,47,0.00,CLR,,0.00,547.0,WeatherDisplay:10.37,2013-02-12 22:15:00,
2013-02-12 14:20:00,60.2,39.9,30.30,NE,51,1.2,1.2,47,0.00,CLR,,0.00,536.0,WeatherDisplay:10.37,2013-02-12 22:20:00,
2013-02-12 14:25:00,60.8,41.0,30.29,North,355,1.2,1.2,48,0.00,CLR,,0.00,522.0,WeatherDisplay:10.37,2013-02-12 22:25:00,
2013-02-12 14:30:00,60.7,41.4,30.29,West,280,2.3,2.3,49,0.00,CLR,,0.00,496.0,WeatherDisplay:10.37,2013-02-12 22:30:00,
2013-02-12 14:35:00,60.2,41.5,30.29,ENE,59,1.2,1.2,50,0.00,CLR,,0.00,438.0,WeatherDisplay:10.37,2013-02-12 22:35:00,
2013-02-12 14:40:00,60.3,41.6,30.29,ENE,59,1.2,1.2,50,0.00,CLR,,0.00,475.0,WeatherDisplay:10.37,2013-02-12 22:40:00,
2013-02-12 14:45:00,60.6,41.8,30.29,ENE,59,1.2,1.2,50,0.00,CLR,,0.00,452.0,WeatherDisplay:10.37,2013-02-12 22:45:00,
2013-02-12 14:50:00,61.0,41.7,30.29,ENE,59,2.3,2.3,49,0.00,CLR,,0.00,267.0,WeatherDisplay:10.37,2013-02-12 22:50:00,
2013-02-12 14:55:00,60.3,40.0,30.29,NNE,15,5.8,5.8,47,0.00,CLR,,0.00,422.0,WeatherDisplay:10.37,2013-02-12 22:55:00,
2013-02-12 15:00:00,60.1,40.3,30.29,NNW,330,2.3,2.3,48,0.00,CLR,,0.00,410.0,WeatherDisplay:10.37,2013-02-12 23:00:00,
2013-02-12 15:05:00,60.4,40.6,30.29,WNW,294,8.0,8.0,48,0.00,CLR,,0.00,406.0,WeatherDisplay:10.37,2013-02-12 23:05:00,
2013-02-12 15:10:00,60.2,39.9,30.29,NNW,331,2.0,2.0,47,0.00,CLR,,0.00,404.0,WeatherDisplay:10.37,2013-02-12 23:10:00,
2013-02-12 15:15:00,59.5,39.2,30.30,NW,305,4.0,4.0,47,0.00,CLR,,0.00,387.0,WeatherDisplay:10.37,2013-02-12 23:15:00,
2013-02-12 15:20:00,59.5,39.8,30.30,WNW,295,3.5,3.5,48,0.00,CLR,,0.00,373.0,WeatherDisplay:10.37,2013-02-12 23:20:00,
2013-02-12 15:25:00,59.3,39.6,30.30,NW,306,5.0,5.0,48,0.00,CLR,,0.00,364.0,WeatherDisplay:10.37,2013-02-12 23:25:00,
2013-02-12 15:30:00,59.7,40.5,30.29,NW,323,3.5,3.5,49,0.00,CLR,,0.00,109.0,WeatherDisplay:10.37,2013-02-12 23:30:00,
2013-02-12 15:35:00,59.5,40.3,30.29,WNW,293,9.2,9.2,49,0.00,SCT,,0.00,62.0,WeatherDisplay:10.37,2013-02-12 23:35:00,
2013-02-12 15:40:00,59.3,41.2,30.29,NNW,336,1.2,1.2,51,0.00,BKN,,0.00,285.0,WeatherDisplay:10.37,2013-02-12 23:40:00,
2013-02-12 15:45:00,59.1,41.0,30.29,North,360,1.2,1.2,51,0.00,SCT,,0.00,269.0,WeatherDisplay:10.37,2013-02-12 23:45:00,
2013-02-12 15:50:00,59.1,40.5,30.29,NW,314,4.6,4.6,50,0.00,CLR,,0.00,267.0,WeatherDisplay:10.37,2013-02-12 23:50:00,
2013-02-12 15:55:00,59.0,39.9,30.29,WNW,303,5.8,5.8,49,0.00,CLR,,0.00,105.0,WeatherDisplay:10.37,2013-02-12 23:55:00,
2013-02-12 16:00:00,59.0,39.9,30.29,WNW,296,7.0,7.0,49,0.00,SCT,,0.00,54.0,WeatherDisplay:10.37,2013-02-13 00:00:00,
2013-02-12 16:05:00,59.0,39.9,30.28,WNW,300,1.2,1.2,49,0.00,BKN,,0.00,207.0,WeatherDisplay:10.37,2013-02-13 00:05:00,
2013-02-12 16:10:00,59.1,39.4,30.28,WNW,292,7.0,7.0,48,0.00,BKN,,0.00,60.0,WeatherDisplay:10.37,2013-02-13 00:10:00,
2013-02-12 16:15:00,59.0,39.9,30.28,WNW,298,6.9,6.9,49,0.00,BKN,,0.00,62.0,WeatherDisplay:10.37,2013-02-13 00:15:00,
2013-02-12 16:20:00,59.0,40.4,30.28,NW,309,2.3,2.3,50,0.00,BKN,,0.00,46.0,WeatherDisplay:10.37,2013-02-13 00:20:00,
2013-02-12 16:25:00,59.0,40.4,30.28,WNW,292,3.5,3.5,50,0.00,BKN,,0.00,44.0,WeatherDisplay:10.37,2013-02-13 00:25:00,
2013-02-12 16:30:00,59.0,40.9,30.28,WNW,294,1.2,1.2,51,0.00,BKN,,0.00,42.0,WeatherDisplay:10.37,2013-02-13 00:30:00,
2013-02-12 16:35:00,59.0,41.9,30.28,NW,308,2.3,2.3,53,0.00,BKN,,0.00,40.0,WeatherDisplay:10.37,2013-02-13 00:35:00,
2013-02-12 16:40:00,59.0,42.8,30.28,NW,304,2.3,2.3,55,0.00,BKN,,0.00,51.0,WeatherDisplay:10.37,2013-02-13 00:40:00,
2013-02-12 16:45:00,58.8,43.6,30.28,NW,305,2.3,2.3,57,0.00,BKN,,0.00,39.0,WeatherDisplay:10.37,2013-02-13 00:45:00,
2013-02-12 16:50:00,58.6,44.3,30.28,WNW,298,3.5,3.5,59,0.00,BKN,,0.00,37.0,WeatherDisplay:10.37,2013-02-13 00:50:00,
2013-02-12 16:55:00,58.4,44.1,30.28,WNW,299,1.2,1.2,59,0.00,BKN,,0.00,35.0,WeatherDisplay:10.37,2013-02-13 00:55:00,
2013-02-12 17:00:00,58.2,44.4,30.28,WNW,299,1.2,1.2,60,0.00,BKN,,0.00,33.0,WeatherDisplay:10.37,2013-02-13 01:00:00,
2013-02-12 17:05:00,58.1,44.3,30.28,WNW,299,0.0,0.0,60,0.00,BKN,,0.00,30.0,WeatherDisplay:10.37,2013-02-13 01:05:00,
2013-02-12 17:10:00,58.0,44.2,30.28,WNW,299,0.0,0.0,60,0.00,BKN,,0.00,26.0,WeatherDisplay:10.37,2013-02-13 01:10:00,
2013-02-12 17:15:00,57.8,44.0,30.28,WNW,294,2.3,2.3,60,0.00,BKN,,0.00,25.0,WeatherDisplay:10.37,2013-02-13 01:15:00,
2013-02-12 17:20:00,57.6,43.8,30.28,WNW,294,0.0,0.0,60,0.00,BKN,,0.00,21.0,WeatherDisplay:10.37,2013-02-13 01:20:00,
2013-02-12 17:25:00,57.5,44.1,30.28,WNW,294,0.0,0.0,61,0.00,SCT,,0.00,18.0,WeatherDisplay:10.37,2013-02-13 01:25:00,
2013-02-12 17:30:00,57.2,44.3,30.28,WNW,294,0.0,0.0,62,0.00,SCT,,0.00,12.0,WeatherDisplay:10.37,2013-02-13 01:30:00,
2013-02-12 17:35:00,57.0,44.5,30.29,WNW,294,0.0,0.0,63,0.00,SCT,,0.00,11.0,WeatherDisplay:10.37,2013-02-13 01:35:00,
2013-02-12 17:40:00,56.7,44.7,30.28,WNW,294,0.0,0.0,64,0.00,CLR,,0.00,7.0,WeatherDisplay:10.37,2013-02-13 01:40:00,
2013-02-12 17:45:00,56.4,44.8,30.29,WNW,294,1.0,0.0,65,0.00,OVC,,0.00,5.0,WeatherDisplay:10.37,2013-02-13 01:45:00,
2013-02-12 17:50:00,56.2,45.0,30.29,WNW,294,1.0,1.0,66,0.00,OVC,,0.00,0.0,WeatherDisplay:10.37,2013-02-13 01:50:00,
2013-02-12 17:55:00,55.9,45.5,30.29,WNW,297,1.2,0.0,68,0.00,OVC,,0.00,0.0,WeatherDisplay:10.37,2013-02-13 01:55:00,
2013-02-12 18:00:00,55.7,45.7,30.29,WNW,296,0.0,0.0,69,0.00,,,0.00,0.0,WeatherDisplay:10.37,2013-02-13 02:00:00,
2013-02-12 18:05:00,55.3,45.3,30.29,WNW,297,0.0,0.0,69,0.00,,,0.00,0.0,WeatherDisplay:10.37,2013-02-13 02:05:00,
2013-02-12 18:10:00,55.0,45.4,30.29,WNW,297,0.0,0.0,70,0.00,,,0.00,0.0,WeatherDisplay:10.37,2013-02-13 02:10:00,
2013-02-12 18:15:00,54.6,45.4,30.29,WNW,296,1.2,1.2,71,0.00,,,0.00,0.0,WeatherDisplay:10.37,2013-02-13 02:15:00,
2013-02-12 18:20:00,54.3,45.5,30.28,WNW,296,1.2,1.2,72,0.00,,,0.00,0.0,WeatherDisplay:10.37,2013-02-13 02:20:00,
2013-02-12 18:25:00,53.9,45.1,30.29,WNW,296,0.0,0.0,72,0.00,,,0.00,0.0,WeatherDisplay:10.37,2013-02-13 02:25:00,
2013-02-12 18:30:00,53.6,45.2,30.29,WNW,296,0.0,0.0,73,0.00,,,0.00,0.0,WeatherDisplay:10.37,2013-02-13 02:30:00,
2013-02-12 18:35:00,53.2,44.8,30.29,WNW,296,0.0,0.0,73,0.00,,,0.00,0.0,WeatherDisplay:10.37,2013-02-13 02:35:00,
2013-02-12 18:40:00,52.9,44.8,30.29,WNW,296,0.0,0.0,74,0.00,,,0.00,0.0,WeatherDisplay:10.37,2013-02-13 02:40:00,
2013-02-12 18:45:00,52.6,44.5,30.29,WNW,296,0.0,0.0,74,0.00,,,0.00,0.0,WeatherDisplay:10.37,2013-02-13 02:45:00,
2013-02-12 18:50:00,52.4,44.7,30.29,WNW,296,0.0,0.0,75,0.00,,,0.00,0.0,WeatherDisplay:10.37,2013-02-13 02:50:00,
2013-02-12 18:55:00,52.1,44.4,30.29,WNW,296,0.0,0.0,75,0.00,,,0.00,0.0,WeatherDisplay:10.37,2013-02-13 02:55:00,
2013-02-12 19:00:00,51.7,44.4,30.29,WNW,296,0.0,0.0,76,0.00,,,0.00,0.0,WeatherDisplay:10.37,2013-02-13 03:00:00,
2013-02-12 19:05:00,51.4,44.1,30.29,WNW,296,0.0,0.0,76,0.00,,,0.00,0.0,WeatherDisplay:10.37,2013-02-13 03:05:00,
2013-02-12 19:10:00,51.0,43.7,30.30,WNW,296,0.0,0.0,76,0.00,,,0.00,0.0,WeatherDisplay:10.37,2013-02-13 03:10:00,
2013-02-12 19:15:00,50.6,43.7,30.30,WNW,296,0.0,0.0,77,0.00,,,0.00,0.0,WeatherDisplay:10.37,2013-02-13 03:15:00,
2013-02-12 19:20:00,50.3,43.4,30.30,WNW,296,0.0,0.0,77,0.00,,,0.00,0.0,WeatherDisplay:10.37,2013-02-13 03:20:00,
2013-02-12 19:25:00,50.2,43.6,30.30,WNW,296,0.0,0.0,78,0.00,,,0.00,0.0,WeatherDisplay:10.37,2013-02-13 03:25:00,
2013-02-12 19:30:00,50.0,43.7,30.30,WNW,296,0.0,0.0,79,0.00,,,0.00,0.0,WeatherDisplay:10.37,2013-02-13 03:30:00,
2013-02-12 19:35:00,49.9,43.6,30.30,WNW,296,1.2,1.2,79,0.00,,,0.00,0.0,WeatherDisplay:10.37,2013-02-13 03:35:00,
2013-02-12 19:40:00,49.6,43.4,30.30,WNW,296,0.0,0.0,79,0.00,,,0.00,0.0,WeatherDisplay:10.37,2013-02-13 03:40:00,
2013-02-12 19:45:00,49.4,43.5,30.30,WNW,296,0.0,0.0,80,0.00,,,0.00,0.0,WeatherDisplay:10.37,2013-02-13 03:45:00,
2013-02-12 19:50:00,49.1,43.2,30.31,WNW,296,0.0,0.0,80,0.00,,,0.00,0.0,WeatherDisplay:10.37,2013-02-13 03:50:00,
2013-02-12 19:55:00,48.8,42.9,30.31,WNW,296,0.0,0.0,80,0.00,,,0.00,0.0,WeatherDisplay:10.37,2013-02-13 03:55:00,
2013-02-12 20:00:00,48.5,42.6,30.30,WNW,296,0.0,0.0,80,0.00,,,0.00,0.0,WeatherDisplay:10.37,2013-02-13 04:00:00,
2013-02-12 20:05:00,48.3,42.7,30.30,WNW,296,0.0,0.0,81,0.00,,,0.00,0.0,WeatherDisplay:10.37,2013-02-13 04:05:00,
2013-02-12 20:10:00,48.1,42.5,30.31,WNW,296,0.0,0.0,81,0.00,CLR,,0.00,0.0,WeatherDisplay:10.37,2013-02-13 04:10:00,
2013-02-12 20:15:00,47.9,42.3,30.30,WNW,296,0.0,0.0,81,0.00,,,0.00,0.0,WeatherDisplay:10.37,2013-02-13 04:15:00,
2013-02-12 20:20:00,47.7,42.5,30.31,WNW,296,0.0,0.0,82,0.00,,,0.00,0.0,WeatherDisplay:10.37,2013-02-13 04:20:00,
2013-02-12 20:25:00,47.4,42.2,30.30,WNW,296,0.0,0.0,82,0.00,,,0.00,0.0,WeatherDisplay:10.37,2013-02-13 04:25:00,
2013-02-12 20:30:00,47.2,42.0,30.30,WNW,296,0.0,0.0,82,0.00,,,0.00,0.0,WeatherDisplay:10.37,2013-02-13 04:30:00,
2013-02-12 20:35:00,46.8,41.6,30.30,WNW,296,0.0,0.0,82,0.00,,,0.00,0.0,WeatherDisplay:10.37,2013-02-13 04:35:00,
2013-02-12 20:40:00,46.7,41.8,30.30,WNW,296,0.0,0.0,83,0.00,,,0.00,0.0,WeatherDisplay:10.37,2013-02-13 04:40:00,
2013-02-12 20:45:00,46.5,41.6,30.31,WNW,296,0.0,0.0,83,0.00,,,0.00,0.0,WeatherDisplay:10.37,2013-02-13 04:45:00,
2013-02-12 20:50:00,46.4,41.5,30.31,WNW,296,0.0,0.0,83,0.00,,,0.00,0.0,WeatherDisplay:10.37,2013-02-13 04:50:00,
2013-02-12 20:55:00,46.1,41.2,30.31,WNW,296,0.0,0.0,83,0.00,,,0.00,0.0,WeatherDisplay:10.37,2013-02-13 04:55:00,
2013-02-12 21:00:00,45.9,41.0,30.31,WNW,296,0.0,0.0,83,0.00,,,0.00,0.0,WeatherDisplay:10.37,2013-02-13 05:00:00,
2013-02-12 21:01:00,45.8,40.9,30.31,WNW,296,0.0,0.0,83,0.00,CLR,,0.00,0.0,WeatherDisplay:10.37,2013-02-13 05:01:00,
2013-02-12 21:06:00,45.5,40.6,30.31,WNW,296,0.0,0.0,83,0.00,,,0.00,0.0,WeatherDisplay:10.37,2013-02-13 05:06:00,
2013-02-12 21:11:00,45.3,40.7,30.31,WNW,296,0.0,0.0,84,0.00,CLR,,0.00,0.0,WeatherDisplay:10.37,2013-02-13 05:11:00,
2013-02-12 21:16:00,45.0,40.5,30.31,WNW,296,0.0,0.0,84,0.00,CLR,,0.00,0.0,WeatherDisplay:10.37,2013-02-13 05:16:00,
2013-02-12 21:21:00,44.7,39.9,30.32,WNW,296,0.0,0.0,83,0.00,,,0.00,0.0,WeatherDisplay:10.37,2013-02-13 05:21:00,
2013-02-12 21:26:00,44.4,39.9,30.32,WNW,296,0.0,0.0,84,0.00,,,0.00,0.0,WeatherDisplay:10.37,2013-02-13 05:26:00,
2013-02-12 21:31:00,44.3,39.8,30.32,WNW,296,0.0,0.0,84,0.00,,,0.00,0.0,WeatherDisplay:10.37,2013-02-13 05:31:00,
2013-02-12 21:36:00,44.1,39.6,30.32,WNW,296,0.0,0.0,84,0.00,,,0.00,0.0,WeatherDisplay:10.37,2013-02-13 05:36:00,
2013-02-12 21:41:00,43.9,39.4,30.32,WNW,296,0.0,0.0,84,0.00,,,0.00,0.0,WeatherDisplay:10.37,2013-02-13 05:41:00,
2013-02-12 21:46:00,43.8,39.3,30.32,WNW,296,0.0,0.0,84,0.00,CLR,,0.00,0.0,WeatherDisplay:10.37,2013-02-13 05:46:00,
2013-02-12 21:51:00,43.7,39.5,30.32,WNW,296,0.0,0.0,85,0.00,,,0.00,0.0,WeatherDisplay:10.37,2013-02-13 05:51:00,
2013-02-12 21:56:00,43.5,39.3,30.32,WNW,296,0.0,0.0,85,0.00,,,0.00,0.0,WeatherDisplay:10.37,2013-02-13 05:56:00,
2013-02-12 22:01:00,43.4,39.2,30.32,WNW,296,0.0,0.0,85,0.00,CLR,,0.00,0.0,WeatherDisplay:10.37,2013-02-13 06:01:00,
2013-02-12 22:06:00,43.2,39.0,30.32,WNW,296,0.0,0.0,85,0.00,,,0.00,0.0,WeatherDisplay:10.37,2013-02-13 06:06:00,
2013-02-12 22:11:00,42.9,38.7,30.32,WNW,296,0.0,0.0,85,0.00,,,0.00,0.0,WeatherDisplay:10.37,2013-02-13 06:11:00,
2013-02-12 22:16:00,42.7,38.5,30.32,WNW,296,0.0,0.0,85,0.00,,,0.00,0.0,WeatherDisplay:10.37,2013-02-13 06:16:00,
2013-02-12 22:21:00,42.5,38.3,30.32,WNW,296,0.0,0.0,85,0.00,,,0.00,0.0,WeatherDisplay:10.37,2013-02-13 06:21:00,
2013-02-12 22:26:00,42.3,38.1,30.32,WNW,296,0.0,0.0,85,0.00,,,0.00,0.0,WeatherDisplay:10.37,2013-02-13 06:26:00,
2013-02-12 22:31:00,42.3,38.4,30.32,WNW,296,0.0,0.0,86,0.00,,,0.00,0.0,WeatherDisplay:10.37,2013-02-13 06:31:00,
2013-02-12 22:36:00,42.2,38.3,30.32,WNW,296,0.0,0.0,86,0.00,,,0.00,0.0,WeatherDisplay:10.37,2013-02-13 06:36:00,
2013-02-12 22:41:00,41.9,37.7,30.32,WNW,296,0.0,0.0,85,0.00,,,0.00,0.0,WeatherDisplay:10.37,2013-02-13 06:41:00,
2013-02-12 22:46:00,41.7,37.5,30.32,WNW,296,0.0,0.0,85,0.00,,,0.00,0.0,WeatherDisplay:10.37,2013-02-13 06:46:00,
2013-02-12 22:51:00,41.6,37.7,30.32,WNW,296,0.0,0.0,86,0.00,,,0.00,0.0,WeatherDisplay:10.37,2013-02-13 06:51:00,
2013-02-12 22:56:00,41.4,37.5,30.32,WNW,296,0.0,0.0,86,0.00,,,0.00,0.0,WeatherDisplay:10.37,2013-02-13 06:56:00,
2013-02-12 23:01:00,41.3,37.4,30.32,WNW,296,0.0,0.0,86,0.00,,,0.00,0.0,WeatherDisplay:10.37,2013-02-13 07:01:00,
2013-02-12 23:06:00,41.1,37.2,30.32,WNW,296,0.0,0.0,86,0.00,,,0.00,0.0,WeatherDisplay:10.37,2013-02-13 07:06:00,
2013-02-12 23:11:00,41.0,37.1,30.32,WNW,296,0.0,0.0,86,0.00,,,0.00,0.0,WeatherDisplay:10.37,2013-02-13 07:11:00,
2013-02-12 23:16:00,40.9,37.0,30.33,WNW,296,0.0,0.0,86,0.00,,,0.00,0.0,WeatherDisplay:10.37,2013-02-13 07:16:00,
2013-02-12 23:21:00,40.8,36.9,30.33,WNW,296,0.0,0.0,86,0.00,,,0.00,0.0,WeatherDisplay:10.37,2013-02-13 07:21:00,
2013-02-12 23:26:00,40.7,36.8,30.33,WNW,296,0.0,0.0,86,0.00,,,0.00,0.0,WeatherDisplay:10.37,2013-02-13 07:26:00,
2013-02-12 23:31:00,40.6,36.7,30.33,WNW,296,0.0,0.0,86,0.00,,,0.00,0.0,WeatherDisplay:10.37,2013-02-13 07:31:00,
2013-02-12 23:36:00,40.4,36.5,30.33,WNW,296,0.0,0.0,86,0.00,,,0.00,0.0,WeatherDisplay:10.37,2013-02-13 07:36:00,
2013-02-12 23:41:00,40.4,36.5,30.33,WNW,296,0.0,0.0,86,0.00,,,0.00,0.0,WeatherDisplay:10.37,2013-02-13 07:41:00,
2013-02-12 23:46:00,40.2,36.3,30.33,WNW,296,0.0,0.0,86,0.00,,,0.00,0.0,WeatherDisplay:10.37,2013-02-13 07:46:00,
2013-02-12 23:51:00,40.1,36.5,30.33,WNW,296,0.0,0.0,87,0.00,,,0.00,0.0,WeatherDisplay:10.37,2013-02-13 07:51:00,
2013-02-12 23:56:00,40.0,36.4,30.33,WNW,296,0.0,0.0,87,0.00,,,0.00,0.0,WeatherDisplay:10.37,2013-02-13 07:56:00,